[[{"header":{"parameterUnit":"m.s-1","parameterCategory":1,"la1":30.2991,"la2":30.254,"lo1":-89.0895,"lo2":-89.0444,"dy":0.0017,"dx":0.0017,"nx":28,"ny":28,"refTime":"2024-08-12T03:00:00:Z","depth":0,"parameterNumber":2,"parameterNumberName":"U-component_of_WINDS"},"data":[0,0,0,0,0,0,0,0,0,0,0,0,0,0,0,0,0,0,0,0,0,0,0,0,0,0,0,0,0,0,0,0,0,0,0,0,0,0,0,0,0,0,0,0,0,0,0,0,0,0,0,0,0,0,0,0,0,0,1.7691,1.7691,0,1.7744,1.7745,1.7746,1.7694,1.7692,1.769,1.7688,1.7742,1.7746,1.7749,0,0,0,0,0,0,0,0,0,0,0,0,0,1.7542,1.7545,1.7691,1.7691,1.7692,1.7744,1.7745,1.7746,1.7694,1.7692,1.7689,1.7687,1.7741,1.7745,1.7749,0,0,0,0,0,0,0,0,0,0,0,0,0,1.7602,1.7546,1.769,1.7673,1.7671,1.7744,1.7745,1.7746,1.7695,1.7692,1.7689,1.7686,1.774,1.7745,1.775,1.7843,0,0,1.7765,1.7768,0,0,0,0,0,0,0,0,1.7599,1.7608,1.7674,1.7674,1.7673,1.7709,1.7713,1.7778,1.7696,1.7686,1.7688,1.7684,1.7734,1.7739,1.7756,1.7845,1.7848,1.7766,1.7769,1.7771,1.7772,0,0,0,0,0,0,0,1.7595,1.7605,1.7712,1.7676,1.7675,1.7662,1.7667,1.7725,1.7727,1.7687,1.7683,1.769,1.7733,1.7751,1.7757,1.7848,1.7766,1.777,1.7773,1.7775,1.8016,1.802,0,0,0,0,0,0,1.7593,1.7602,1.771,1.7713,1.7628,1.7667,1.7673,1.7701,1.7726,1.7727,1.7693,1.7688,1.7744,1.7751,1.7759,1.7869,1.7771,1.7776,1.7779,1.8013,1.8017,1.8021,0,0,0,0,0,0,1.759,1.7603,1.7708,1.7657,1.7669,1.7673,1.7705,1.7703,1.7722,1.773,1.773,1.7711,1.7742,1.7752,1.7822,1.787,1.7778,1.7783,1.8009,1.8014,1.8019,1.809,0,0,0,0,0,0,1.7586,1.7602,1.7638,1.7658,1.7672,1.7771,1.7708,1.7707,1.7731,1.7725,1.7748,1.7749,1.774,1.7815,1.7827,1.7875,1.7787,1.8005,1.8011,1.8017,1.8084,1.8097,1.8109,0,0,0,0,0,1.7581,1.7656,1.764,1.7653,1.7717,1.7774,1.7782,1.7771,1.7735,1.7771,1.7776,1.7748,1.7863,1.7823,1.7836,1.7886,1.8002,1.801,1.8017,1.8078,1.8095,1.8109,0,0,0,0,0,0,1.764,1.7658,1.7641,1.7724,1.7748,1.7765,1.781,1.7789,1.7823,1.7816,1.78,1.7806,1.7881,1.7891,1.7845,1.7978,1.7926,1.7937,1.7968,1.7984,1.7996,1.7992,1.7791,0,0,0,0,0,1.7663,1.7709,1.7721,1.7794,1.7807,1.7806,1.7831,1.782,1.7844,1.7854,1.7865,1.7889,1.793,1.7958,1.7996,1.8085,1.8089,1.8126,1.8139,1.8149,1.8158,1.8206,1.8222,1.8046,1.8046,1.8046,0,0,1.7711,1.7726,1.7756,1.7806,1.7823,1.787,1.7815,1.7867,1.7902,1.7862,1.7929,1.7938,1.7964,1.8044,1.808,1.8054,1.8208,1.8159,1.8167,1.8171,1.8215,1.8232,1.8247,1.8051,1.805,1.8049,0,0,1.7822,1.7838,1.79,1.7919,1.7946,1.7945,1.796,1.7981,1.7985,1.8052,1.8023,1.8064,1.8136,1.8156,1.8175,1.8294,1.8269,1.8307,1.8372,1.8419,1.8432,1.8445,1.8487,1.8502,1.8316,1.8316,1.8316,0,1.7878,1.7948,1.7935,1.7989,1.8012,1.7979,1.8041,1.806,1.8098,1.8115,1.8086,1.8175,1.819,1.8274,1.8303,1.832,1.8337,1.8304,1.8432,1.8444,1.8455,1.8495,1.8511,1.8321,1.832,1.832,1.8319,0,1.8015,1.8064,1.8111,1.8149,1.8177,1.8236,1.8232,1.8262,1.8249,1.8251,1.832,1.8337,1.8379,1.8398,1.8386,1.8481,1.8464,1.8434,1.8382,1.8476,1.8514,1.8529,1.8327,1.8325,1.8324,1.8323,0,0,1.8165,1.8196,1.8213,1.823,1.8257,1.8294,1.8351,1.8392,1.8418,1.8445,1.8492,1.8554,1.8526,1.8548,1.8538,1.8579,1.8672,1.8544,1.8544,1.8567,1.8777,1.8799,1.8817,1.8656,1.8659,1.8661,1.8775,0,1.8277,1.8376,1.8366,1.846,1.8505,1.8473,1.8523,1.8545,1.8548,1.8587,1.859,1.8634,1.8595,1.8608,1.8647,1.8652,1.8714,1.8644,1.8699,1.8701,1.8693,1.8837,1.8861,1.8967,1.8789,1.8792,1.8794,0,1.8421,1.8454,1.8552,1.8572,1.8591,1.8635,1.8672,1.8709,1.8733,1.8733,1.8758,1.8741,1.8797,1.8745,1.8823,1.8775,1.8797,1.8804,1.8807,1.8812,1.8753,1.8845,1.9001,1.9017,1.8817,1.8815,1.8813,0,1.852,1.8589,1.8657,1.8672,1.8697,1.8729,1.8741,1.8763,1.8788,1.882,1.8836,1.8874,1.8895,1.8924,1.8918,1.888,1.8997,1.8944,1.8998,1.8999,1.9024,1.9023,1.9186,1.9039,1.9039,1.9039,1.9038,0,1.8646,1.8708,1.8702,1.8743,1.8811,1.8799,1.8866,1.8874,1.8893,1.8936,1.8911,1.8951,1.894,1.898,1.8975,1.904,1.905,1.9051,1.9049,1.9053,1.9053,1.9067,1.9059,1.9043,1.9042,1.9041,1.904,0,1.8769,1.8767,1.8839,1.8857,1.8863,1.8912,1.8928,1.8967,1.8968,1.9022,1.9034,1.9037,1.9083,1.9079,1.913,1.9127,1.9207,1.9197,1.9199,1.9197,1.9251,1.9246,1.9429,1.9452,1.9291,1.9292,1.9294,0,1.8849,1.8896,1.8919,1.8946,1.896,1.9003,1.9029,1.9019,1.9046,1.9077,1.9113,1.9156,1.919,1.9264,1.927,1.931,1.9299,1.9361,1.9305,1.9308,1.93,1.9297,1.9302,1.9372,1.9373,1.9375,1.9376,0,1.8992,1.8989,1.9027,1.9065,1.9096,1.9125,1.9152,1.9175,1.9167,1.92,1.9246,1.9273,1.9325,1.9368,1.9405,1.9417,1.9396,1.9394,1.9408,1.9413,1.9412,1.9413,1.9229,1.9389,1.9388,1.9387,1.9386,1.9386,1.9096,1.9136,1.9158,1.9201,1.922,1.9246,1.9283,1.9289,1.9328,1.937,1.9361,1.9414,1.9436,1.9484,1.9499,1.954,1.9518,1.9539,1.9544,1.955,1.9556,1.9406,1.9547,1.9546,1.9546,1.9546,1.9545,0,1.9237,1.925,1.929,1.9328,1.9362,1.9339,1.9367,1.9396,1.9443,1.9466,1.95,1.9553,1.9595,1.9604,1.9644,1.9675,1.9666,1.9685,1.9683,1.9686,1.9573,1.9557,1.9692,1.9692,1.9692,1.9692,1.9692,1.9692,1.9315,1.9381,1.9381,1.9456,1.9468,1.9519,1.9537,1.956,1.9578,1.9639,1.9673,1.9679,1.9697,1.9738,1.9775,1.9777,1.9793,1.9816,1.9814,1.9709,1.9694,1.968,1.9664,1.982,1.982,1.9923,1.9924,1.9925]},{"header":{"parameterUnit":"m.s-1","parameterCategory":1,"la1":30.2991,"la2":30.254,"lo1":-89.0895,"lo2":-89.0444,"dy":0.0017,"dx":0.0017,"nx":28,"ny":28,"refTime":"2024-08-12T03:00:00:Z","depth":0,"parameterNumber":3,"parameterNumberName":"V-component_of_WINDS"},"data":[0,0,0,0,0,0,0,0,0,0,0,0,0,0,0,0,0,0,0,0,0,0,0,0,0,0,0,0,0,0,0,0,0,0,0,0,0,0,0,0,0,0,0,0,0,0,0,0,0,0,0,0,0,0,0,0,0,0,-1.9621,-1.9622,0,-1.9704,-1.9705,-1.9706,-1.9714,-1.9714,-1.9713,-1.9712,-1.9796,-1.9799,-1.9802,0,0,0,0,0,0,0,0,0,0,0,0,0,-1.9469,-1.9472,-1.9621,-1.9622,-1.9623,-1.9704,-1.9705,-1.9706,-1.9715,-1.9714,-1.9713,-1.9712,-1.9795,-1.9799,-1.9803,0,0,0,0,0,0,0,0,0,0,0,0,0,-1.9542,-1.9473,-1.9621,-1.9637,-1.9639,-1.9704,-1.9705,-1.9707,-1.9715,-1.9714,-1.9712,-1.9711,-1.9794,-1.9799,-1.9803,-1.9857,0,0,-1.9817,-1.9819,0,0,0,0,0,0,0,0,-1.9538,-1.9548,-1.9634,-1.9636,-1.9639,-1.9698,-1.9683,-1.9757,-1.9715,-1.9686,-1.9712,-1.971,-1.9765,-1.9772,-1.979,-1.9861,-1.9865,-1.9818,-1.982,-1.9822,-1.9824,0,0,0,0,0,0,0,-1.9533,-1.9544,-1.9654,-1.9635,-1.9638,-1.964,-1.9649,-1.9697,-1.9732,-1.9689,-1.9689,-1.9699,-1.9766,-1.9785,-1.9792,-1.9866,-1.9817,-1.9822,-1.9824,-1.9826,-1.9987,-1.9988,0,0,0,0,0,0,-1.9525,-1.954,-1.9651,-1.9656,-1.9584,-1.9644,-1.9654,-1.968,-1.9731,-1.9738,-1.97,-1.9699,-1.9778,-1.9787,-1.9795,-1.9862,-1.9822,-1.9827,-1.9829,-1.9985,-1.9987,-1.9989,0,0,0,0,0,0,-1.9522,-1.9535,-1.9648,-1.9598,-1.9613,-1.9648,-1.9677,-1.9682,-1.9702,-1.974,-1.9746,-1.9714,-1.9778,-1.9789,-1.9842,-1.9865,-1.9829,-1.9833,-1.9983,-1.9986,-1.9988,-1.9996,0,0,0,0,0,0,-1.9517,-1.9534,-1.9554,-1.9599,-1.9616,-1.9693,-1.9679,-1.9685,-1.971,-1.971,-1.9754,-1.9761,-1.9777,-1.9835,-1.9846,-1.9871,-1.9836,-1.9982,-1.9985,-1.9987,-1.9994,-1.9999,-2.0003,0,0,0,0,0,-1.9512,-1.9553,-1.9555,-1.9569,-1.9642,-1.9695,-1.9704,-1.9723,-1.9712,-1.9733,-1.9758,-1.9759,-1.9861,-1.984,-1.9853,-1.9879,-1.998,-1.9984,-1.9987,-1.9992,-1.9998,-2.0002,0,0,0,0,0,0,-1.951,-1.9559,-1.9562,-1.9619,-1.9653,-1.9696,-1.9723,-1.9728,-1.9765,-1.9763,-1.9785,-1.9795,-1.9848,-1.9869,-1.9845,-1.9935,-1.9919,-1.9926,-1.9919,-1.9925,-1.9929,-1.9922,-1.984,0,0,0,0,0,-1.9516,-1.9555,-1.9596,-1.9642,-1.9659,-1.9688,-1.9712,-1.9723,-1.9759,-1.9773,-1.9801,-1.9836,-1.9876,-1.9901,-1.994,-1.9997,-2.0008,-2.0022,-2.0026,-2.0029,-2.0034,-2.0067,-2.0074,-2.0,-2.0,-2.0,0,0,-1.9529,-1.9561,-1.9584,-1.9642,-1.967,-1.9709,-1.97,-1.9742,-1.9772,-1.9779,-1.9832,-1.9854,-1.9894,-1.995,-1.9976,-1.9969,-2.0057,-2.0034,-2.0036,-2.0039,-2.0071,-2.0078,-2.0084,-2.0002,-2.0002,-2.0002,0,0,-1.9573,-1.9601,-1.9643,-1.9671,-1.9713,-1.9732,-1.9742,-1.9786,-1.9801,-1.9854,-1.9861,-1.9896,-1.9964,-1.9992,-2.0016,-2.0072,-2.0075,-2.0084,-2.0106,-2.0137,-2.0143,-2.0148,-2.0169,-2.0176,-2.0089,-2.0089,-2.0089,0,-1.9584,-1.9644,-1.9664,-1.9706,-1.9732,-1.9741,-1.9784,-1.981,-1.9862,-1.988,-1.9872,-1.9958,-1.9985,-2.0049,-2.0062,-2.0081,-2.0093,-2.0079,-2.0141,-2.0146,-2.0151,-2.0171,-2.0179,-2.009,-2.009,-2.009,-2.0089,0,-1.9656,-1.9697,-1.9726,-1.9777,-1.9806,-1.9848,-1.9874,-1.9901,-1.9911,-1.9931,-1.9986,-2.0019,-2.0065,-2.0081,-2.009,-2.0146,-2.014,-2.0136,-2.0121,-2.0159,-2.0178,-2.0186,-2.0091,-2.0091,-2.009,-2.009,0,0,-1.97,-1.9762,-1.9772,-1.9796,-1.9843,-1.9876,-1.9919,-1.9964,-1.9987,-2.0023,-2.006,-2.0118,-2.0115,-2.0141,-2.0154,-2.0182,-2.0225,-2.0174,-2.0176,-2.0183,-2.0289,-2.0292,-2.03,-2.0227,-2.0229,-2.023,-2.0285,0,-1.975,-1.9827,-1.9846,-1.9912,-1.9951,-1.9961,-1.9998,-2.0032,-2.0052,-2.0088,-2.0111,-2.0152,-2.0144,-2.0161,-2.0189,-2.0214,-2.0246,-2.021,-2.0262,-2.0264,-2.0252,-2.031,-2.0313,-2.0363,-2.0293,-2.0294,-2.0295,0,-1.9818,-1.9856,-1.9926,-1.9969,-1.9986,-2.0019,-2.0063,-2.0097,-2.0135,-2.0149,-2.0179,-2.0189,-2.0235,-2.0217,-2.0281,-2.0255,-2.0278,-2.0294,-2.0296,-2.0302,-2.0281,-2.0317,-2.038,-2.0388,-2.0307,-2.0306,-2.0305,0,-1.9844,-1.9913,-1.9963,-1.9983,-2.0035,-2.0058,-2.008,-2.0117,-2.0144,-2.0182,-2.0199,-2.0242,-2.0266,-2.0299,-2.0321,-2.0306,-2.0382,-2.0367,-2.0395,-2.0394,-2.041,-2.0409,-2.0478,-2.0424,-2.0424,-2.0424,-2.0424,0,-1.9898,-1.994,-1.9976,-2.0007,-2.0055,-2.0077,-2.0124,-2.0146,-2.018,-2.0216,-2.0227,-2.026,-2.0287,-2.0325,-2.0342,-2.0392,-2.0402,-2.0415,-2.0419,-2.0414,-2.0412,-2.0429,-2.0426,-2.0426,-2.0426,-2.0425,-2.0425,0,-1.9935,-1.996,-2.0016,-2.0061,-2.0073,-2.0106,-2.0144,-2.0175,-2.0197,-2.0242,-2.0254,-2.0287,-2.0332,-2.0357,-2.0413,-2.0425,-2.0481,-2.0483,-2.0468,-2.047,-2.0497,-2.0494,-2.0579,-2.0591,-2.0529,-2.053,-2.053,0,-1.9967,-2.0,-2.0048,-2.0073,-2.0096,-2.0136,-2.0163,-2.0187,-2.0215,-2.0261,-2.0287,-2.0332,-2.037,-2.0441,-2.047,-2.0513,-2.0517,-2.0543,-2.0523,-2.0517,-2.0518,-2.0515,-2.0519,-2.0547,-2.0547,-2.0548,-2.0548,0,-2.0022,-2.0033,-2.0072,-2.0116,-2.0148,-2.0183,-2.0218,-2.0238,-2.0267,-2.0298,-2.0344,-2.0374,-2.0431,-2.0476,-2.0522,-2.0546,-2.0552,-2.0554,-2.0563,-2.0558,-2.0549,-2.0555,-2.0478,-2.0552,-2.0552,-2.0552,-2.0551,-2.0551,-2.0058,-2.0088,-2.0127,-2.017,-2.0199,-2.0232,-2.0263,-2.0289,-2.0327,-2.0376,-2.0388,-2.0436,-2.0475,-2.0537,-2.0562,-2.06,-2.0595,-2.0608,-2.0611,-2.0614,-2.0615,-2.0542,-2.0609,-2.0609,-2.0608,-2.0608,-2.0608,0,-2.0114,-2.014,-2.0179,-2.0228,-2.0262,-2.0266,-2.0305,-2.0333,-2.0376,-2.0411,-2.0448,-2.0502,-2.0546,-2.0579,-2.0624,-2.0649,-2.0653,-2.066,-2.0658,-2.0664,-2.0617,-2.0605,-2.0656,-2.0656,-2.0656,-2.0656,-2.0656,-2.0656,-2.0147,-2.0198,-2.0214,-2.028,-2.0306,-2.0354,-2.0376,-2.0406,-2.0435,-2.0494,-2.0531,-2.0552,-2.0587,-2.0635,-2.0676,-2.0684,-2.0701,-2.0707,-2.0716,-2.0672,-2.0667,-2.0662,-2.0651,-2.0711,-2.0711,-2.076,-2.0761,-2.0761]}]]